TimeWET,TemperatureF,Dew PointF,Humidity,Sea Level PressureIn,VisibilityMPH,Wind Direction,Wind SpeedMPH,Gust SpeedMPH,PrecipitationIn,Events,Conditions,WindDirDegrees,DateUTC
12:00 AM,44,37,70,29.91,6,East,9.2,,,,Clear,80,2013-02-27 00:00:00
12:00 AM,44.6,37.4,76,29.86,-9999.0,East,9.2,-,N/A,,Clear,80,2013-02-27 00:00:00
1:00 AM,42.8,37.4,81,29.86,-9999.0,East,9.2,-,N/A,,Clear,80,2013-02-27 01:00:00
2:00 AM,41.0,35.6,81,29.86,-9999.0,NE,5.8,-,N/A,,Clear,50,2013-02-27 02:00:00
3:00 AM,42.8,33.8,70,29.83,-9999.0,East,10.4,-,N/A,,Clear,80,2013-02-27 03:00:00
4:00 AM,39.2,33.8,81,29.83,-9999.0,ENE,4.6,-,N/A,,Clear,60,2013-02-27 04:00:00
5:00 AM,37.4,33.8,87,-9999,-9999.0,ENE,4.6,-,N/A,,Clear,70,2013-02-27 05:00:00
6:00 AM,39,32,67,29.88,6,ENE,5.8,,,,Clear,70,2013-02-27 06:00:00
6:00 AM,39.2,32.0,75,29.80,-9999.0,ENE,5.8,-,N/A,,Clear,70,2013-02-27 06:00:00
7:00 AM,37.4,30.2,75,29.80,-9999.0,ESE,5.8,-,N/A,,Clear,110,2013-02-27 07:00:00
8:00 AM,41.0,33.8,76,29.83,-9999.0,NE,6.9,-,N/A,,Clear,50,2013-02-27 08:00:00
9:00 AM,47,37,57,29.85,6,ENE,6.9,,,,Clear,60,2013-02-27 09:00:00
9:00 AM,46.4,35.6,66,29.80,-9999.0,SSE,6.9,-,N/A,,Clear,160,2013-02-27 09:00:00
10:00 AM,50.0,39.2,66,29.80,-9999.0,ENE,9.2,-,N/A,,Clear,60,2013-02-27 10:00:00
11:00 AM,53.6,42.8,67,29.80,-9999.0,ENE,10.4,-,N/A,,Clear,70,2013-02-27 11:00:00
12:00 PM,55,41,49,29.81,6,ENE,11.5,,,,Clear,70,2013-02-27 12:00:00
12:00 PM,55.4,41.0,58,29.80,-9999.0,ENE,11.5,-,N/A,,Clear,70,2013-02-27 12:00:00
1:00 PM,59.0,42.8,55,29.77,6.2,East,9.2,-,N/A,,Partly Cloudy,80,2013-02-27 13:00:00
2:00 PM,59.0,41.0,51,29.77,6.2,NE,4.6,-,N/A,,Partly Cloudy,50,2013-02-27 14:00:00
3:00 PM,62,42,37,29.75,6,North,3.5,,,,Scattered Clouds,350,2013-02-27 15:00:00
3:00 PM,60.8,41.0,48,29.77,6.2,North,4.6,-,N/A,,Partly Cloudy,350,2013-02-27 15:00:00
4:00 PM,60.8,44.6,55,29.77,6.2,North,3.5,-,N/A,,Partly Cloudy,360,2013-02-27 16:00:00
5:00 PM,59.0,44.6,59,29.77,6.2,NW,4.6,-,N/A,,Mostly Cloudy,320,2013-02-27 17:00:00
6:00 PM,57.2,48.2,72,29.77,6.2,NW,5.8,-,N/A,,Mostly Cloudy,320,2013-02-27 18:00:00
7:00 PM,53.6,46.4,77,29.80,6.2,West,4.6,-,N/A,,Mostly Cloudy,260,2013-02-27 19:00:00
8:00 PM,53.6,44.6,72,29.80,6.2,WNW,5.8,-,N/A,,Mostly Cloudy,290,2013-02-27 20:00:00
9:00 PM,51.8,44.6,76,29.83,6.2,WNW,5.8,-,N/A,,Mostly Cloudy,290,2013-02-27 21:00:00
10:00 PM,48.2,39.2,71,29.89,6.2,West,4.6,-,N/A,,Mostly Cloudy,260,2013-02-27 22:00:00
11:00 PM,48.2,41.0,76,29.86,6.2,Variable,3.5,-,N/A,,Mostly Cloudy,0,2013-02-27 23:00:00